Los Alamitos Army Air Field Los Alamitos US
ICAO: KSLI
IATA: SLI
Category: Medium
Scheduled Services: No

Elevation: 32 ft
TransAlt. 18000 ft.

Airport Communications:
SOCAL APP/DEP:124.65
AFLD OPS ADVSY SVC:126.2
GND:126.95
AASF OPS:41.5
PMSV METRO:23.98
ARCOM OPS:139.05
TWR:123.85

KSLI Zoom In..

If you have problems with the map follow the link
https://www.worldairports.se/pages/airport.php?
ICAO=KSLI

Runways:

(A) RW 04L length 5900 ft width 150 ft
---- / hdg 40

(B) RW 04R length 8000 ft width 200 ft
---- / hdg 40

(C) RW 22L length 8000 ft width 200 ft
---- / hdg 220

(D) RW 22R length 5900 ft width 150 ft
---- / hdg 220

Location; KSLI
Day. 17 / Time. 01.58 Zulu
* Altimeter: 29.96
* Temperature: 17° c. 62.6°f.
* Wind from: 000° Speed 00 kn.
Dewpoint: 15° c.
Visibility: 10 Statute Miles.
Clouds: Scattered 22000 ft.

KSLI 170158Z 00000KT 10SM SCT220 17/15 A2996 RMK AO2A SLP148 T01680151


Wind - Calm.

 
 
jpsmedia.com for Web Design worldairports.se 2018   terms of use